Skip Page Navigation
NASA JPL Caltech
NASA Logo - Jet Propulsion Laboratory + View the NASA Portal
+ Center for Near-Earth Object Studies
JPL Home Earth Solar System Stars & Galaxies Technology
JPL Solar System Dynamics
BODIES ORBITS EPHEMERIDES TOOLS PHYSICAL DATA DISCOVERY FAQ SITE MAP
IMPORTANT: The SSD Announcement email list is now available. Major changes are coming in the near future, including possible hostname and/or URL changes. To be notified of such changes, subscribe to this email list.

Please visit this page for more details.


JPL Small-Body Database Browser
Search: [ help ]  
34637 (2000 VR41)
Classification: Main-belt Asteroid          SPK-ID: 2034637
Ephemeris | Orbit Diagram | Orbital Elements | Mission Design | Physical Parameters | Discovery Circumstances | Close-Approach Data ]

[ show orbit diagram ]
Orbital Elements at Epoch 2459000.5 (2020-May-31.0) TDB
Reference: JPL 21 (heliocentric ecliptic J2000)
 Element Value Uncertainty (1-sigma)   Units 
e .1085774800824273 4.1566e-08  
a 3.007809704685458 1.8808e-08 au
q 2.681229306383241 1.2521e-07 au
i 3.623249313890669 4.7163e-06 deg
node 321.2652604638383 7.0586e-05 deg
peri 250.4784138993433 7.3543e-05 deg
M 96.59878472284051 2.0696e-05 deg
tp 2458489.238460758652
(2019-Jan-05.73846076)
0.00010958 TDB
period 1905.346476717798
5.22
1.7871e-05
4.893e-08
d
yr
n .1889420136437053 1.7722e-09 deg/d
Q 3.334390102987675 2.085e-08 au
  Orbit Determination Parameters
   # obs. used (total)      1181  
   data-arc span      9117 days (24.96 yr)  
   first obs. used      1994-08-12  
   last obs. used      2019-07-29  
   planetary ephem.      DE431  
   SB-pert. ephem.      SB431-N16  
   condition code      0  
   norm. resid. RMS      .52666  
   source      ORB  
   producer      Otto Matic  
   solution date      2020-Feb-23 03:32:22  

Additional Information
 Earth MOID = 1.67833 au 
 Jupiter MOID = 1.65905 au 
 T_jup = 3.239 
[ show covariance matrix ]

Ephemeris | Orbit Diagram | Orbital Elements | Mission Design | Physical Parameters | Discovery Circumstances | Close-Approach Data ]

Physical Parameter Table
Parameter Symbol Value Units Sigma Reference Notes
absolute magnitude H 14.0   n/a MPO347775  
diameter diameter 8.728 km 0.245 urn:nasa:pds:neowise_diameters_albedos::2.0[mainbelt] (http://adsabs.harvard.edu/abs/2011ApJ...741...68M)  
geometric albedo albedo 0.070   0.005 urn:nasa:pds:neowise_diameters_albedos::2.0[mainbelt] (http://adsabs.harvard.edu/abs/2011ApJ...741...68M)  

34637 (2000 VR41)          Discovered 2000-Nov-01 by LINEAR at Socorro
Reference: 20020128/Numbers.arcLast Updated: 2004-04-19

[ show close-approach data ]
Alternate Designations
 2000 VR41 = 1994 PR21 = 1998 KB28 
Ephemeris | Orbit Diagram | Orbital Elements | Mission Design | Physical Parameters | Discovery Circumstances | Close-Approach Data ]
ABOUT SSD CREDITS/AWARDS PRIVACY/COPYRIGHT GLOSSARY LINKS
FirstGov 2020-May-29 23:20 UT
(server date/time)  
NASA Home Page
Site Manager:   Ryan S. Park
Webmaster  Alan B. Chamberlin